Location: Stanford
(52.2833°N, 2.4333°W)
Time: 02:20:29
(UTC+00:00)

Cosmos 44 - Pass Details

Date: 22 January 2021
Orbit: 572 x 789 km, 65.1° (Epoch: 28 February)

Event Time Altitude Azimuth Distance (km) Brightness Sun altitude
Rises 18:47:27 0° 196° (SSW) 2,976 6.9 -19.2°
Reaches altitude 10° 18:49:47 10° 189° (S) 2,103 6.0 -19.6°
Maximum altitude 18:54:16 41° 120° (ESE) 1,025 3.8 -20.3°
Enters shadow 18:54:28 41° 114° (ESE) 1,030 3.7 -20.3°
